Time,TemperatureF,DewpointF,PressureIn,WindDirection,WindDirectionDegrees,WindSpeedMPH,WindSpeedGustMPH,Humidity,HourlyPrecipIn,Conditions,Clouds,dailyrainin,SoftwareType,DateUTC
2013-09-19 00:04:00,49.5,42.2,29.88,ENE,72,0.0,0.0,76,0.00,,---,0.00,VWS V14.01,2013-09-19 07:04:00,
2013-09-19 00:09:00,49.3,42.0,29.88,ENE,61,2.7,3.6,76,0.00,,---,0.00,VWS V14.01,2013-09-19 07:09:00,
2013-09-19 00:15:00,49.1,41.9,29.88,ENE,61,2.7,3.1,76,0.00,,---,0.00,VWS V14.01,2013-09-19 07:15:00,
2013-09-19 00:20:00,48.9,42.4,29.88,ENE,65,0.0,0.0,78,0.00,,---,0.00,VWS V14.01,2013-09-19 07:20:00,
2013-09-19 00:26:00,48.7,42.2,29.88,ENE,65,0.0,0.0,78,0.00,,---,0.00,VWS V14.01,2013-09-19 07:26:00,
2013-09-19 00:31:00,48.6,42.0,29.88,ENE,65,0.0,0.0,78,0.00,,---,0.00,VWS V14.01,2013-09-19 07:31:00,
2013-09-19 00:37:00,48.4,41.8,29.88,ENE,65,0.0,0.0,78,0.00,,---,0.00,VWS V14.01,2013-09-19 07:37:00,
2013-09-19 00:42:00,47.8,42.0,29.88,ENE,65,0.0,0.0,80,0.00,,---,0.00,VWS V14.01,2013-09-19 07:42:00,
2013-09-19 00:48:00,47.8,42.0,29.88,ENE,71,0.0,0.0,80,0.00,,---,0.00,VWS V14.01,2013-09-19 07:48:00,
2013-09-19 00:53:00,47.8,42.0,29.88,SE,136,0.0,0.0,80,0.00,,---,0.00,VWS V14.01,2013-09-19 07:53:00,
2013-09-19 00:58:00,47.8,42.0,29.88,ESE,122,0.0,0.0,80,0.00,,---,0.00,VWS V14.01,2013-09-19 07:58:00,
2013-09-19 01:04:00,47.7,41.8,29.88,NE,56,3.1,3.6,80,0.00,,---,0.00,VWS V14.01,2013-09-19 08:04:00,
2013-09-19 01:09:00,47.5,41.6,29.88,NE,53,2.7,3.6,80,0.00,,---,0.00,VWS V14.01,2013-09-19 08:09:00,
2013-09-19 01:15:00,47.5,42.3,29.88,NE,53,0.0,0.0,82,0.00,,---,0.00,VWS V14.01,2013-09-19 08:15:00,
2013-09-19 01:20:00,47.3,42.1,29.88,ENE,73,3.6,4.9,82,0.00,,---,0.00,VWS V14.01,2013-09-19 08:20:00,
2013-09-19 01:26:00,47.3,42.1,29.88,ENE,65,2.2,2.7,82,0.00,,---,0.00,VWS V14.01,2013-09-19 08:26:00,
2013-09-19 01:31:00,47.5,42.3,29.88,East,84,2.2,3.1,82,0.00,,---,0.00,VWS V14.01,2013-09-19 08:31:00,
2013-09-19 01:37:00,47.3,42.1,29.88,East,84,0.0,0.0,82,0.00,,---,0.00,VWS V14.01,2013-09-19 08:37:00,
2013-09-19 01:43:00,47.3,42.1,29.88,SE,126,0.0,0.0,82,0.00,,---,0.00,VWS V14.01,2013-09-19 08:43:00,
2013-09-19 01:48:00,47.1,42.5,29.88,ENE,76,4.0,4.0,84,0.00,,---,0.00,VWS V14.01,2013-09-19 08:48:00,
2013-09-19 01:53:00,46.9,41.7,29.88,NE,52,2.2,4.0,82,0.00,,---,0.00,VWS V14.01,2013-09-19 08:53:00,
2013-09-19 01:59:00,46.6,41.4,29.88,NE,49,0.0,0.0,82,0.00,,---,0.00,VWS V14.01,2013-09-19 08:59:00,
2013-09-19 02:04:00,46.6,42.0,29.88,NE,49,0.0,0.0,84,0.00,,---,0.00,VWS V14.01,2013-09-19 09:04:00,
2013-09-19 02:10:00,46.6,42.0,29.88,ENE,76,0.0,0.0,84,0.00,,---,0.00,VWS V14.01,2013-09-19 09:10:00,
2013-09-19 02:15:00,46.2,41.7,29.88,ENE,76,0.0,0.0,84,0.00,,---,0.00,VWS V14.01,2013-09-19 09:15:00,
2013-09-19 02:20:00,45.9,41.3,29.88,ENE,76,0.0,0.0,84,0.00,,---,0.00,VWS V14.01,2013-09-19 09:20:00,
2013-09-19 02:25:00,45.7,41.1,29.88,ENE,76,0.0,0.0,84,0.00,,---,0.00,VWS V14.01,2013-09-19 09:25:00,
2013-09-19 02:31:00,45.7,41.1,29.88,ENE,76,0.0,0.0,84,0.00,,---,0.00,VWS V14.01,2013-09-19 09:31:00,
2013-09-19 02:37:00,45.5,41.0,29.88,ENE,76,0.0,0.0,84,0.00,,---,0.00,VWS V14.01,2013-09-19 09:37:00,
2013-09-19 02:42:00,45.5,41.0,29.88,ENE,76,0.0,0.0,84,0.00,,---,0.00,VWS V14.01,2013-09-19 09:42:00,
2013-09-19 02:48:00,44.8,40.2,29.88,NE,50,0.0,0.0,84,0.00,,---,0.00,VWS V14.01,2013-09-19 09:48:00,
2013-09-19 02:53:00,44.4,39.9,29.88,NE,46,0.0,0.0,84,0.00,,---,0.00,VWS V14.01,2013-09-19 09:53:00,
2013-09-19 02:59:00,44.6,40.1,29.88,NE,46,0.0,0.0,84,0.00,,---,0.00,VWS V14.01,2013-09-19 09:59:00,
2013-09-19 03:05:00,44.4,40.5,29.88,NE,45,0.0,0.0,86,0.00,,---,0.00,VWS V14.01,2013-09-19 10:05:00,
2013-09-19 03:10:00,44.1,40.2,29.88,NE,45,0.0,0.0,86,0.00,,---,0.00,VWS V14.01,2013-09-19 10:10:00,
2013-09-19 03:15:00,44.2,40.3,29.88,East,93,0.0,0.0,86,0.00,,---,0.00,VWS V14.01,2013-09-19 10:15:00,
2013-09-19 03:20:00,44.2,40.3,29.88,SSE,152,0.0,0.0,86,0.00,,---,0.00,VWS V14.01,2013-09-19 10:20:00,
2013-09-19 03:26:00,44.1,40.2,29.88,SSE,162,0.0,0.0,86,0.00,,---,0.00,VWS V14.01,2013-09-19 10:26:00,
2013-09-19 03:31:00,43.9,40.0,29.88,SSE,151,0.0,0.0,86,0.00,,---,0.00,VWS V14.01,2013-09-19 10:31:00,
2013-09-19 03:36:00,43.9,40.0,29.88,East,100,0.0,0.0,86,0.00,,---,0.00,VWS V14.01,2013-09-19 10:36:00,
2013-09-19 03:42:00,43.9,40.0,29.88,East,101,2.7,3.6,86,0.00,,---,0.00,VWS V14.01,2013-09-19 10:42:00,
2013-09-19 03:47:00,43.7,39.8,29.88,NE,36,2.7,3.6,86,0.00,,---,0.00,VWS V14.01,2013-09-19 10:47:00,
2013-09-19 03:53:00,43.2,39.3,29.88,North,353,0.0,0.0,86,0.00,,---,0.00,VWS V14.01,2013-09-19 10:53:00,
2013-09-19 03:58:00,43.0,39.1,29.88,North,353,0.0,0.0,86,0.00,,---,0.00,VWS V14.01,2013-09-19 10:58:00,
2013-09-19 04:04:00,43.2,39.3,29.88,North,353,0.0,0.0,86,0.00,,---,0.00,VWS V14.01,2013-09-19 11:04:00,
2013-09-19 04:09:00,43.2,39.3,29.88,North,353,0.0,0.0,86,0.00,,---,0.00,VWS V14.01,2013-09-19 11:09:00,
2013-09-19 04:15:00,43.0,39.1,29.88,North,353,0.0,0.0,86,0.00,,---,0.00,VWS V14.01,2013-09-19 11:15:00,
2013-09-19 04:21:00,42.6,39.3,29.88,North,353,0.0,0.0,88,0.00,,---,0.00,VWS V14.01,2013-09-19 11:21:00,
2013-09-19 04:27:00,42.6,39.3,29.88,North,353,0.0,0.0,88,0.00,,---,0.00,VWS V14.01,2013-09-19 11:27:00,
2013-09-19 04:32:00,42.6,39.3,29.88,North,353,0.0,0.0,88,0.00,,---,0.00,VWS V14.01,2013-09-19 11:32:00,
2013-09-19 04:37:00,42.4,39.1,29.88,North,353,0.0,0.0,88,0.00,,---,0.00,VWS V14.01,2013-09-19 11:37:00,
2013-09-19 04:43:00,42.3,39.0,29.88,North,353,0.0,0.0,88,0.00,,---,0.00,VWS V14.01,2013-09-19 11:43:00,
2013-09-19 04:49:00,42.3,39.0,29.88,North,353,0.0,0.0,88,0.00,,---,0.00,VWS V14.01,2013-09-19 11:49:00,
2013-09-19 04:54:00,42.3,39.5,29.88,North,353,0.0,0.0,90,0.00,,---,0.00,VWS V14.01,2013-09-19 11:54:00,
2013-09-19 04:59:00,42.3,39.5,29.88,SE,131,3.1,3.1,90,0.00,,---,0.00,VWS V14.01,2013-09-19 11:59:00,
2013-09-19 05:04:00,42.4,39.7,29.88,SE,131,0.0,0.0,90,0.00,,---,0.00,VWS V14.01,2013-09-19 12:04:00,
2013-09-19 05:09:00,42.6,39.9,29.88,SSE,165,2.2,2.7,90,0.00,,---,0.00,VWS V14.01,2013-09-19 12:09:00,
2013-09-19 05:15:00,42.8,40.1,29.88,SSE,165,2.7,3.1,90,0.00,,---,0.00,VWS V14.01,2013-09-19 12:15:00,
2013-09-19 05:20:00,42.6,39.9,29.88,SSE,165,2.7,2.7,90,0.00,,---,0.00,VWS V14.01,2013-09-19 12:20:00,
2013-09-19 05:26:00,42.6,39.9,29.88,SSE,165,3.1,3.6,90,0.00,,---,0.00,VWS V14.01,2013-09-19 12:26:00,
2013-09-19 05:31:00,42.4,39.7,29.88,SSE,165,0.0,0.0,90,0.00,,---,0.00,VWS V14.01,2013-09-19 12:31:00,
2013-09-19 05:37:00,42.1,39.4,29.88,NNW,338,0.0,0.0,90,0.00,,---,0.00,VWS V14.01,2013-09-19 12:37:00,
2013-09-19 05:43:00,42.3,39.5,29.88,NNW,338,0.0,0.0,90,0.00,,---,0.00,VWS V14.01,2013-09-19 12:43:00,
2013-09-19 05:49:00,42.3,39.5,29.88,NNW,338,0.0,0.0,90,0.00,,---,0.00,VWS V14.01,2013-09-19 12:49:00,
2013-09-19 05:54:00,42.4,39.7,29.88,NNW,338,0.0,0.0,90,0.00,,---,0.00,VWS V14.01,2013-09-19 12:54:00,
2013-09-19 05:59:00,42.3,39.5,29.88,NNW,338,0.0,0.0,90,0.00,,---,0.00,VWS V14.01,2013-09-19 12:59:00,
2013-09-19 06:05:00,42.3,39.5,29.88,NNW,338,0.0,0.0,90,0.00,,---,0.00,VWS V14.01,2013-09-19 13:05:00,
2013-09-19 06:11:00,42.4,39.7,29.88,NNW,338,0.0,0.0,90,0.00,,---,0.00,VWS V14.01,2013-09-19 13:11:00,
2013-09-19 06:16:00,42.6,39.9,29.88,NNW,338,0.0,0.0,90,0.00,,---,0.00,VWS V14.01,2013-09-19 13:16:00,
2013-09-19 06:22:00,42.4,39.7,29.88,NNW,338,0.0,0.0,90,0.00,,---,0.00,VWS V14.01,2013-09-19 13:22:00,
2013-09-19 06:28:00,42.4,39.7,29.88,NNW,338,0.0,0.0,90,0.00,,---,0.00,VWS V14.01,2013-09-19 13:28:00,
2013-09-19 06:34:00,42.3,39.5,29.88,NNW,338,0.0,0.0,90,0.00,,---,0.00,VWS V14.01,2013-09-19 13:34:00,
2013-09-19 06:39:00,42.3,39.5,29.88,North,353,0.0,0.0,90,0.00,,---,0.00,VWS V14.01,2013-09-19 13:39:00,
2013-09-19 06:45:00,42.3,39.5,29.88,North,353,0.0,0.0,90,0.00,,---,0.00,VWS V14.01,2013-09-19 13:45:00,
2013-09-19 06:50:00,42.4,39.7,29.88,North,353,0.0,0.0,90,0.00,,---,0.00,VWS V14.01,2013-09-19 13:50:00,
2013-09-19 06:55:00,42.6,39.9,29.88,North,353,0.0,0.0,90,0.00,,---,0.00,VWS V14.01,2013-09-19 13:55:00,
2013-09-19 07:00:00,42.8,40.1,29.88,North,353,0.0,0.0,90,0.00,,---,0.00,VWS V14.01,2013-09-19 14:00:00,
2013-09-19 07:06:00,43.3,40.6,29.88,SE,135,0.0,0.0,90,0.00,,---,0.00,VWS V14.01,2013-09-19 14:06:00,
2013-09-19 07:12:00,44.1,41.3,29.88,SSE,155,0.0,0.0,90,0.00,,---,0.00,VWS V14.01,2013-09-19 14:12:00,
2013-09-19 07:17:00,44.8,41.5,29.88,SSE,155,0.0,0.0,88,0.00,,---,0.00,VWS V14.01,2013-09-19 14:17:00,
2013-09-19 07:22:00,45.7,42.9,29.91,SSE,155,0.0,0.0,90,0.00,,---,0.00,VWS V14.01,2013-09-19 14:22:00,
2013-09-19 07:27:00,46.6,43.2,29.91,South,175,0.0,0.0,88,0.00,,---,0.00,VWS V14.01,2013-09-19 14:27:00,
2013-09-19 07:34:00,48.0,44.6,29.91,South,179,0.0,0.0,88,0.00,,---,0.00,VWS V14.01,2013-09-19 14:34:00,
2013-09-19 07:39:00,49.6,46.2,29.91,SE,136,0.0,0.0,88,0.00,,---,0.00,VWS V14.01,2013-09-19 14:39:00,
2013-09-19 07:45:00,50.9,46.9,29.91,SE,140,0.0,0.0,86,0.00,,---,0.00,VWS V14.01,2013-09-19 14:45:00,
2013-09-19 07:50:00,52.5,47.8,29.91,SE,143,0.0,0.0,84,0.00,,---,0.00,VWS V14.01,2013-09-19 14:50:00,
2013-09-19 07:56:00,54.5,49.1,29.91,SSE,148,0.0,0.0,82,0.00,,---,0.00,VWS V14.01,2013-09-19 14:56:00,
2013-09-19 08:02:00,56.1,49.4,29.91,SSE,154,0.0,0.0,78,0.00,,---,0.00,VWS V14.01,2013-09-19 15:02:00,
2013-09-19 08:07:00,57.4,49.9,29.91,SSE,154,0.0,0.0,76,0.00,,---,0.00,VWS V14.01,2013-09-19 15:07:00,
2013-09-19 08:13:00,58.8,50.6,29.91,SSE,154,0.0,0.0,74,0.00,,---,0.00,VWS V14.01,2013-09-19 15:13:00,
2013-09-19 08:18:00,60.1,51.0,29.91,South,176,0.0,0.0,72,0.00,,---,0.00,VWS V14.01,2013-09-19 15:18:00,
2013-09-19 08:24:00,61.7,51.8,29.91,SW,232,0.0,0.0,70,0.00,,---,0.00,VWS V14.01,2013-09-19 15:24:00,
2013-09-19 08:29:00,63.5,52.8,29.91,WSW,239,0.0,0.0,68,0.00,,---,0.00,VWS V14.01,2013-09-19 15:29:00,
2013-09-19 08:35:00,65.1,53.5,29.91,WSW,255,0.0,0.0,66,0.00,,---,0.00,VWS V14.01,2013-09-19 15:35:00,
2013-09-19 08:41:00,66.9,54.4,29.91,South,182,0.0,0.0,64,0.00,,---,0.00,VWS V14.01,2013-09-19 15:41:00,
2013-09-19 08:47:00,68.5,54.1,29.91,WSW,252,3.1,4.0,60,0.00,,---,0.00,VWS V14.01,2013-09-19 15:47:00,
2013-09-19 08:52:00,70.2,52.8,29.91,WSW,252,4.0,4.9,54,0.00,,---,0.00,VWS V14.01,2013-09-19 15:52:00,
2013-09-19 08:58:00,71.6,50.9,29.91,WSW,253,0.0,2.7,48,0.00,,---,0.00,VWS V14.01,2013-09-19 15:58:00,
2013-09-19 09:03:00,73.2,51.2,29.91,WSW,253,0.0,0.0,46,0.00,,---,0.00,VWS V14.01,2013-09-19 16:03:00,
2013-09-19 09:08:00,74.5,49.9,29.91,WSW,253,0.0,0.0,42,0.00,,---,0.00,VWS V14.01,2013-09-19 16:08:00,
2013-09-19 09:14:00,76.1,50.0,29.91,WSW,254,3.6,4.0,40,0.00,,---,0.00,VWS V14.01,2013-09-19 16:14:00,
2013-09-19 09:19:00,77.7,48.7,29.91,SSE,163,7.6,10.1,36,0.00,,---,0.00,VWS V14.01,2013-09-19 16:19:00,
2013-09-19 09:25:00,79.5,45.4,29.91,SSE,166,6.3,8.3,30,0.00,,---,0.00,VWS V14.01,2013-09-19 16:25:00,
2013-09-19 09:30:00,80.6,44.5,29.91,SSE,168,5.4,6.7,28,0.00,,---,0.00,VWS V14.01,2013-09-19 16:30:00,
2013-09-19 09:36:00,81.7,45.4,29.91,SSE,157,5.4,7.6,28,0.00,,---,0.00,VWS V14.01,2013-09-19 16:36:00,
2013-09-19 09:41:00,82.4,46.1,29.91,SSE,151,10.5,10.5,28,0.00,,---,0.00,VWS V14.01,2013-09-19 16:41:00,
2013-09-19 09:46:00,83.1,46.7,29.91,ESE,107,5.4,8.7,28,0.00,,---,0.00,VWS V14.01,2013-09-19 16:46:00,
2013-09-19 09:51:00,83.7,47.1,29.91,ESE,112,14.1,14.1,28,0.00,,---,0.00,VWS V14.01,2013-09-19 16:51:00,
2013-09-19 09:57:00,84.2,45.6,29.91,East,84,8.3,10.1,26,0.00,,---,0.00,VWS V14.01,2013-09-19 16:57:00,
2013-09-19 10:03:00,84.7,46.1,29.91,ENE,72,8.1,12.3,26,0.00,,---,0.00,VWS V14.01,2013-09-19 17:03:00,
2013-09-19 10:08:00,85.1,46.4,29.91,East,93,8.1,10.5,26,0.00,,---,0.00,VWS V14.01,2013-09-19 17:08:00,
2013-09-19 10:14:00,85.5,46.7,29.91,ESE,116,6.3,9.2,26,0.00,,---,0.00,VWS V14.01,2013-09-19 17:14:00,
2013-09-19 10:20:00,85.8,47.0,29.91,East,91,5.8,15.0,26,0.00,,---,0.00,VWS V14.01,2013-09-19 17:20:00,
2013-09-19 10:25:00,86.2,47.3,29.91,ENE,68,8.3,12.8,26,0.00,,---,0.00,VWS V14.01,2013-09-19 17:25:00,
2013-09-19 10:31:00,86.5,47.6,29.91,ENE,73,8.1,8.3,26,0.00,,---,0.00,VWS V14.01,2013-09-19 17:31:00,
2013-09-19 10:36:00,87.1,48.1,29.91,East,89,3.6,5.8,26,0.00,,---,0.00,VWS V14.01,2013-09-19 17:36:00,
2013-09-19 10:41:00,86.7,47.8,29.91,WSW,241,12.3,12.3,26,0.00,,---,0.00,VWS V14.01,2013-09-19 17:41:00,
2013-09-19 10:47:00,85.8,47.0,29.91,WSW,254,10.1,11.0,26,0.00,,---,0.00,VWS V14.01,2013-09-19 17:47:00,
2013-09-19 10:53:00,84.4,45.8,29.91,West,259,8.3,11.0,26,0.00,,---,0.00,VWS V14.01,2013-09-19 17:53:00,
2013-09-19 10:59:00,83.5,47.0,29.91,WNW,288,6.3,8.3,28,0.00,,---,0.00,VWS V14.01,2013-09-19 17:59:00,
2013-09-19 11:04:00,83.5,47.0,29.91,West,281,7.6,8.7,28,0.00,,---,0.00,VWS V14.01,2013-09-19 18:04:00,
2013-09-19 11:10:00,83.5,47.0,29.91,NW,313,6.3,11.0,28,0.00,,---,0.00,VWS V14.01,2013-09-19 18:10:00,
2013-09-19 11:15:00,84.0,47.4,29.91,West,267,11.0,11.0,28,0.00,,---,0.00,VWS V14.01,2013-09-19 18:15:00,
2013-09-19 11:21:00,83.5,47.0,29.91,West,276,10.1,10.1,28,0.00,,---,0.00,VWS V14.01,2013-09-19 18:21:00,
2013-09-19 11:26:00,83.5,47.0,29.91,West,264,6.3,8.7,28,0.00,,---,0.00,VWS V14.01,2013-09-19 18:26:00,
2013-09-19 11:31:00,83.3,46.8,29.91,WSW,245,11.9,12.8,28,0.00,,---,0.00,VWS V14.01,2013-09-19 18:31:00,
2013-09-19 11:36:00,83.3,46.8,29.91,WSW,244,11.4,12.8,28,0.00,,---,0.00,VWS V14.01,2013-09-19 18:36:00,
2013-09-19 11:42:00,83.3,46.8,29.91,West,266,11.0,11.9,28,0.00,,---,0.00,VWS V14.01,2013-09-19 18:42:00,
2013-09-19 11:47:00,82.9,46.5,29.91,WSW,255,8.1,11.0,28,0.00,,---,0.00,VWS V14.01,2013-09-19 18:47:00,
2013-09-19 11:53:00,82.8,46.4,29.91,West,262,12.8,12.8,28,0.00,,---,0.00,VWS V14.01,2013-09-19 18:53:00,
2013-09-19 11:58:00,83.3,46.8,29.91,WSW,255,10.1,13.6,28,0.00,,---,0.00,VWS V14.01,2013-09-19 18:58:00,
2013-09-19 12:04:00,83.7,47.1,29.91,West,269,8.1,8.7,28,0.00,,---,0.00,VWS V14.01,2013-09-19 19:04:00,
2013-09-19 12:09:00,83.5,47.0,29.91,West,260,9.6,11.4,28,0.00,,---,0.00,VWS V14.01,2013-09-19 19:09:00,
2013-09-19 12:15:00,84.2,45.6,29.91,WSW,250,11.0,12.8,26,0.00,,---,0.00,VWS V14.01,2013-09-19 19:15:00,
2013-09-19 12:21:00,84.7,46.1,29.91,West,270,6.3,8.7,26,0.00,,---,0.00,VWS V14.01,2013-09-19 19:21:00,
2013-09-19 12:26:00,85.5,46.7,29.91,WSW,257,13.2,13.6,26,0.00,,---,0.00,VWS V14.01,2013-09-19 19:26:00,
2013-09-19 12:31:00,85.3,46.5,29.91,West,270,12.3,12.8,26,0.00,,---,0.00,VWS V14.01,2013-09-19 19:31:00,
2013-09-19 12:37:00,84.7,46.1,29.91,WSW,254,10.5,13.6,26,0.00,,---,0.00,VWS V14.01,2013-09-19 19:37:00,
2013-09-19 12:42:00,84.2,45.6,29.91,West,264,11.0,15.4,26,0.00,,---,0.00,VWS V14.01,2013-09-19 19:42:00,
2013-09-19 12:48:00,84.0,47.4,29.91,SSW,207,7.6,12.8,28,0.00,,---,0.00,VWS V14.01,2013-09-19 19:48:00,
2013-09-19 12:54:00,84.6,45.9,29.91,West,266,11.0,11.0,26,0.00,,---,0.00,VWS V14.01,2013-09-19 19:54:00,
2013-09-19 12:59:00,85.1,46.4,29.91,West,279,5.4,11.0,26,0.00,,---,0.00,VWS V14.01,2013-09-19 19:59:00,
2013-09-19 13:04:00,85.1,46.4,29.91,West,270,10.1,11.0,26,0.00,,---,0.00,VWS V14.01,2013-09-19 20:04:00,
2013-09-19 13:09:00,84.7,46.1,29.91,WSW,254,11.0,11.0,26,0.00,,---,0.00,VWS V14.01,2013-09-19 20:09:00,
2013-09-19 13:14:00,85.1,46.4,29.91,SW,229,8.7,12.8,26,0.00,,---,0.00,VWS V14.01,2013-09-19 20:14:00,
2013-09-19 13:20:00,85.8,47.0,29.91,WSW,238,8.1,12.8,26,0.00,,---,0.00,VWS V14.01,2013-09-19 20:20:00,
2013-09-19 13:26:00,85.8,47.0,29.91,WSW,252,12.3,13.2,26,0.00,,---,0.00,VWS V14.01,2013-09-19 20:26:00,
2013-09-19 13:32:00,85.6,46.8,29.91,SW,233,11.0,11.9,26,0.00,,---,0.00,VWS V14.01,2013-09-19 20:32:00,
2013-09-19 13:38:00,85.8,47.0,29.88,WSW,248,11.9,11.9,26,0.00,,---,0.00,VWS V14.01,2013-09-19 20:38:00,
2013-09-19 13:44:00,85.8,47.0,29.88,SW,234,12.8,12.8,26,0.00,,---,0.00,VWS V14.01,2013-09-19 20:44:00,
2013-09-19 13:50:00,86.2,47.3,29.88,SW,223,8.3,14.5,26,0.00,,---,0.00,VWS V14.01,2013-09-19 20:50:00,
2013-09-19 13:56:00,86.5,47.6,29.88,SW,236,8.7,10.1,26,0.00,,---,0.00,VWS V14.01,2013-09-19 20:56:00,
2013-09-19 14:01:00,86.7,47.8,29.88,WSW,255,7.6,12.3,26,0.00,,---,0.00,VWS V14.01,2013-09-19 21:01:00,
2013-09-19 14:07:00,86.9,47.9,29.88,WSW,237,11.4,13.2,26,0.00,,---,0.00,VWS V14.01,2013-09-19 21:07:00,
2013-09-19 14:12:00,86.9,47.9,29.88,WSW,244,11.0,13.2,26,0.00,,---,0.00,VWS V14.01,2013-09-19 21:12:00,
2013-09-19 14:18:00,86.7,47.8,29.88,West,266,6.3,7.6,26,0.00,,---,0.00,VWS V14.01,2013-09-19 21:18:00,
2013-09-19 14:24:00,86.7,47.8,29.88,WSW,245,11.0,12.8,26,0.00,,---,0.00,VWS V14.01,2013-09-19 21:24:00,
2013-09-19 14:29:00,86.2,47.3,29.88,SSW,213,4.9,11.0,26,0.00,,---,0.00,VWS V14.01,2013-09-19 21:29:00,
2013-09-19 14:34:00,86.5,47.6,29.88,West,267,13.2,13.2,26,0.00,,---,0.00,VWS V14.01,2013-09-19 21:34:00,
2013-09-19 14:40:00,86.4,47.5,29.88,West,262,13.6,13.6,26,0.00,,---,0.00,VWS V14.01,2013-09-19 21:40:00,
2013-09-19 14:46:00,86.0,47.2,29.88,WNW,303,7.6,13.2,26,0.00,,---,0.00,VWS V14.01,2013-09-19 21:46:00,
2013-09-19 14:52:00,85.6,46.8,29.88,WSW,256,13.2,13.2,26,0.00,,---,0.00,VWS V14.01,2013-09-19 21:52:00,
2013-09-19 14:57:00,85.6,46.8,29.88,WSW,253,9.6,12.8,26,0.00,,---,0.00,VWS V14.01,2013-09-19 21:57:00,
2013-09-19 15:03:00,85.6,46.8,29.88,WSW,258,8.1,10.5,26,0.00,,---,0.00,VWS V14.01,2013-09-19 22:03:00,
2013-09-19 15:08:00,85.1,46.4,29.88,SW,215,11.4,11.4,26,0.00,,---,0.00,VWS V14.01,2013-09-19 22:08:00,
2013-09-19 15:13:00,85.3,46.5,29.88,WSW,245,13.6,13.6,26,0.00,,---,0.00,VWS V14.01,2013-09-19 22:13:00,
2013-09-19 15:19:00,85.3,46.5,29.88,WSW,256,11.0,11.0,26,0.00,,---,0.00,VWS V14.01,2013-09-19 22:19:00,
2013-09-19 15:24:00,85.3,46.5,29.88,West,280,10.1,10.5,26,0.00,,---,0.00,VWS V14.01,2013-09-19 22:24:00,
2013-09-19 15:30:00,85.3,46.5,29.88,WSW,248,11.0,12.8,26,0.00,,---,0.00,VWS V14.01,2013-09-19 22:30:00,
2013-09-19 15:35:00,85.1,46.4,29.88,SW,228,8.7,11.0,26,0.00,,---,0.00,VWS V14.01,2013-09-19 22:35:00,
2013-09-19 15:41:00,85.5,46.7,29.88,West,266,10.1,12.8,26,0.00,,---,0.00,VWS V14.01,2013-09-19 22:41:00,
2013-09-19 15:47:00,86.4,47.5,29.88,WSW,252,8.3,10.5,26,0.00,,---,0.00,VWS V14.01,2013-09-19 22:47:00,
2013-09-19 15:52:00,86.4,47.5,29.88,SW,222,8.7,15.4,26,0.00,,---,0.00,VWS V14.01,2013-09-19 22:52:00,
2013-09-19 15:58:00,85.8,47.0,29.88,West,259,8.3,8.7,26,0.00,,---,0.00,VWS V14.01,2013-09-19 22:58:00,
2013-09-19 16:03:00,84.9,46.2,29.88,WSW,247,8.1,12.3,26,0.00,,---,0.00,VWS V14.01,2013-09-19 23:03:00,
2013-09-19 16:09:00,84.7,46.1,29.88,WSW,238,8.1,8.7,26,0.00,,---,0.00,VWS V14.01,2013-09-19 23:09:00,
2013-09-19 16:14:00,84.9,46.2,29.88,WNW,292,8.3,8.3,26,0.00,,---,0.00,VWS V14.01,2013-09-19 23:14:00,
2013-09-19 16:20:00,85.3,46.5,29.88,West,272,7.2,8.1,26,0.00,,---,0.00,VWS V14.01,2013-09-19 23:20:00,
2013-09-19 16:25:00,84.2,45.6,29.88,WSW,256,8.3,8.7,26,0.00,,---,0.00,VWS V14.01,2013-09-19 23:25:00,
2013-09-19 16:31:00,83.7,47.1,29.88,West,265,8.7,10.5,28,0.00,,---,0.00,VWS V14.01,2013-09-19 23:31:00,
2013-09-19 16:36:00,83.5,47.0,29.88,WSW,240,8.3,12.3,28,0.00,,---,0.00,VWS V14.01,2013-09-19 23:36:00,
2013-09-19 16:42:00,84.6,45.9,29.88,West,264,8.7,8.7,26,0.00,,---,0.00,VWS V14.01,2013-09-19 23:42:00,
2013-09-19 16:47:00,83.8,47.3,29.88,NW,313,4.0,6.3,28,0.00,,---,0.00,VWS V14.01,2013-09-19 23:47:00,
2013-09-19 16:53:00,82.8,46.4,29.88,West,272,8.1,8.3,28,0.00,,---,0.00,VWS V14.01,2013-09-19 23:53:00,
2013-09-19 16:58:00,82.2,45.9,29.88,SW,236,12.8,13.2,28,0.00,,---,0.00,VWS V14.01,2013-09-19 23:58:00,
2013-09-19 17:03:00,81.9,45.6,29.88,SSW,210,5.8,10.5,28,0.00,,---,0.00,VWS V14.01,2013-09-20 00:03:00,
2013-09-19 17:08:00,82.6,46.2,29.88,South,188,6.3,10.5,28,0.00,,---,0.00,VWS V14.01,2013-09-20 00:08:00,
2013-09-19 17:13:00,83.3,46.8,29.88,WSW,254,8.3,8.3,28,0.00,,---,0.00,VWS V14.01,2013-09-20 00:13:00,
2013-09-19 17:18:00,83.1,46.7,29.88,WSW,238,5.8,6.3,28,0.00,,---,0.00,VWS V14.01,2013-09-20 00:18:00,
2013-09-19 17:24:00,81.9,45.6,29.88,WSW,240,8.3,9.6,28,0.00,,---,0.00,VWS V14.01,2013-09-20 00:24:00,
2013-09-19 17:30:00,81.3,50.3,29.88,WSW,240,5.8,8.1,34,0.00,,---,0.00,VWS V14.01,2013-09-20 00:30:00,
2013-09-19 17:36:00,81.0,50.0,29.88,West,262,5.4,7.6,34,0.00,,---,0.00,VWS V14.01,2013-09-20 00:36:00,
2013-09-19 17:42:00,80.4,49.5,29.88,WSW,243,7.6,7.6,34,0.00,,---,0.00,VWS V14.01,2013-09-20 00:42:00,
2013-09-19 17:48:00,80.1,49.2,29.88,WNW,285,8.1,8.1,34,0.00,,---,0.00,VWS V14.01,2013-09-20 00:48:00,
2013-09-19 17:54:00,80.1,49.2,29.88,WSW,246,6.7,7.2,34,0.00,,---,0.00,VWS V14.01,2013-09-20 00:54:00,
2013-09-19 17:59:00,80.4,49.5,29.88,WSW,244,5.8,8.1,34,0.00,,---,0.00,VWS V14.01,2013-09-20 00:59:00,
2013-09-19 18:05:00,79.9,49.0,29.88,SW,234,7.6,8.1,34,0.00,,---,0.00,VWS V14.01,2013-09-20 01:05:00,
2013-09-19 18:10:00,79.0,48.2,29.88,WSW,242,4.0,5.4,34,0.00,,---,0.00,VWS V14.01,2013-09-20 01:10:00,
2013-09-19 18:15:00,78.3,52.0,29.88,WSW,254,5.8,5.8,40,0.00,,---,0.00,VWS V14.01,2013-09-20 01:15:00,
2013-09-19 18:21:00,77.5,51.3,29.88,SW,231,3.1,3.1,40,0.00,,---,0.00,VWS V14.01,2013-09-20 01:21:00,
2013-09-19 18:27:00,77.0,50.9,29.88,SSW,213,2.7,3.6,40,0.00,,---,0.00,VWS V14.01,2013-09-20 01:27:00,
2013-09-19 18:32:00,76.3,51.5,29.88,SSW,213,0.0,0.0,42,0.00,,---,0.00,VWS V14.01,2013-09-20 01:32:00,
2013-09-19 18:38:00,75.7,51.0,29.88,SSE,165,0.0,0.0,42,0.00,,---,0.00,VWS V14.01,2013-09-20 01:38:00,
2013-09-19 18:43:00,75.4,50.7,29.88,SW,216,4.0,4.0,42,0.00,,---,0.00,VWS V14.01,2013-09-20 01:43:00,
2013-09-19 18:48:00,74.8,50.2,29.88,SSW,206,2.7,3.6,42,0.00,,---,0.00,VWS V14.01,2013-09-20 01:48:00,
2013-09-19 18:54:00,74.3,49.8,29.88,SSW,195,2.2,3.1,42,0.00,,---,0.00,VWS V14.01,2013-09-20 01:54:00,
2013-09-19 19:00:00,73.6,50.3,29.88,SSW,196,2.7,2.7,44,0.00,,---,0.00,VWS V14.01,2013-09-20 02:00:00,
2013-09-19 19:05:00,73.2,50.0,29.88,SSW,196,0.0,0.0,44,0.00,,---,0.00,VWS V14.01,2013-09-20 02:05:00,
2013-09-19 19:11:00,72.7,49.5,29.88,SSW,196,0.0,0.0,44,0.00,,---,0.00,VWS V14.01,2013-09-20 02:11:00,
2013-09-19 19:17:00,72.3,49.2,29.88,SSW,196,0.0,0.0,44,0.00,,---,0.00,VWS V14.01,2013-09-20 02:17:00,
2013-09-19 19:22:00,71.4,49.6,29.88,SSW,196,0.0,0.0,46,0.00,,---,0.00,VWS V14.01,2013-09-20 02:22:00,
2013-09-19 19:28:00,70.7,48.9,29.88,ENE,62,0.0,3.1,46,0.00,,---,0.00,VWS V14.01,2013-09-20 02:28:00,
2013-09-19 19:33:00,69.8,49.2,29.88,NE,37,0.0,0.0,48,0.00,,---,0.00,VWS V14.01,2013-09-20 02:33:00,
2013-09-19 19:38:00,69.1,48.6,29.88,NNE,30,0.0,2.7,48,0.00,,---,0.00,VWS V14.01,2013-09-20 02:38:00,
2013-09-19 19:43:00,68.9,49.5,29.88,NNE,30,0.0,0.0,50,0.00,,---,0.00,VWS V14.01,2013-09-20 02:43:00,
2013-09-19 19:50:00,68.4,49.0,29.88,NNE,30,0.0,0.0,50,0.00,,---,0.00,VWS V14.01,2013-09-20 02:50:00,
2013-09-19 19:55:00,68.0,49.7,29.88,SE,130,0.0,0.0,52,0.00,,---,0.00,VWS V14.01,2013-09-20 02:55:00,
2013-09-19 20:01:00,67.5,49.2,29.88,ENE,64,5.4,5.4,52,0.00,,---,0.00,VWS V14.01,2013-09-20 03:01:00,
2013-09-19 20:06:00,67.1,48.9,29.91,ENE,76,2.2,2.7,52,0.00,,---,0.00,VWS V14.01,2013-09-20 03:06:00,
2013-09-19 20:12:00,66.9,49.8,29.91,ENE,68,3.1,3.1,54,0.00,,---,0.00,VWS V14.01,2013-09-20 03:12:00,
2013-09-19 20:18:00,66.6,49.4,29.91,East,91,0.0,0.0,54,0.00,,---,0.00,VWS V14.01,2013-09-20 03:18:00,
2013-09-19 20:23:00,66.4,49.2,29.91,ENE,68,4.9,4.9,54,0.00,,---,0.00,VWS V14.01,2013-09-20 03:23:00,
2013-09-19 20:29:00,65.5,48.4,29.91,ENE,60,3.1,4.5,54,0.00,,---,0.00,VWS V14.01,2013-09-20 03:29:00,
2013-09-19 20:34:00,65.1,48.1,29.91,ENE,70,0.0,2.2,54,0.00,,---,0.00,VWS V14.01,2013-09-20 03:34:00,
2013-09-19 20:39:00,64.8,47.8,29.91,East,80,3.1,3.6,54,0.00,,---,0.00,VWS V14.01,2013-09-20 03:39:00,
2013-09-19 20:45:00,64.2,47.2,29.91,NE,51,0.0,0.0,54,0.00,,---,0.00,VWS V14.01,2013-09-20 03:45:00,
2013-09-19 20:51:00,63.9,47.9,29.91,ENE,57,0.0,0.0,56,0.00,,---,0.00,VWS V14.01,2013-09-20 03:51:00,
2013-09-19 20:56:00,63.1,47.2,29.91,ENE,57,0.0,0.0,56,0.00,,---,0.00,VWS V14.01,2013-09-20 03:56:00,
2013-09-19 21:01:00,62.8,46.9,29.91,ENE,57,0.0,0.0,56,0.00,,---,0.00,VWS V14.01,2013-09-20 04:01:00,
2013-09-19 21:02:00,62.8,46.9,29.91,ENE,57,0.0,0.0,56,0.00,,---,0.00,VWS V14.01,2013-09-20 04:02:00,
2013-09-19 21:03:00,62.8,46.9,29.91,ENE,57,0.0,0.0,56,0.00,,---,0.00,VWS V14.01,2013-09-20 04:03:00,
2013-09-19 21:04:00,62.8,46.9,29.91,ENE,57,0.0,0.0,56,0.00,,---,0.00,VWS V14.01,2013-09-20 04:04:00,
2013-09-19 21:05:00,62.6,46.7,29.91,ENE,57,0.0,0.0,56,0.00,,---,0.00,VWS V14.01,2013-09-20 04:05:00,
2013-09-19 21:10:00,62.4,47.5,29.91,ENE,57,0.0,0.0,58,0.00,,---,0.00,VWS V14.01,2013-09-20 04:10:00,
2013-09-19 21:15:00,62.2,47.3,29.91,SE,146,0.0,0.0,58,0.00,,---,0.00,VWS V14.01,2013-09-20 04:15:00,
2013-09-19 21:20:00,61.9,47.0,29.91,ESE,110,0.0,0.0,58,0.00,,---,0.00,VWS V14.01,2013-09-20 04:20:00,
2013-09-19 21:26:00,61.3,46.5,29.91,East,83,0.0,0.0,58,0.00,,---,0.00,VWS V14.01,2013-09-20 04:26:00,
2013-09-19 21:31:00,60.8,46.0,29.91,East,83,0.0,0.0,58,0.00,,---,0.00,VWS V14.01,2013-09-20 04:31:00,
2013-09-19 21:37:00,60.4,46.5,29.91,ENE,57,3.1,3.1,60,0.00,,---,0.00,VWS V14.01,2013-09-20 04:37:00,
2013-09-19 21:42:00,60.1,46.2,29.91,NE,45,2.7,2.7,60,0.00,,---,0.00,VWS V14.01,2013-09-20 04:42:00,
2013-09-19 21:48:00,59.2,45.3,29.91,North,357,0.0,0.0,60,0.00,,---,0.00,VWS V14.01,2013-09-20 04:48:00,
2013-09-19 21:53:00,58.8,45.8,29.91,ENE,60,3.6,4.9,62,0.00,,---,0.00,VWS V14.01,2013-09-20 04:53:00,
2013-09-19 21:59:00,58.6,46.5,29.91,ENE,69,0.0,0.0,64,0.00,,---,0.00,VWS V14.01,2013-09-20 04:59:00,
2013-09-19 22:04:00,58.5,47.2,29.91,ENE,68,0.0,0.0,66,0.00,,---,0.00,VWS V14.01,2013-09-20 05:04:00,
2013-09-19 22:10:00,58.5,47.2,29.91,ENE,68,0.0,0.0,66,0.00,,---,0.00,VWS V14.01,2013-09-20 05:10:00,
2013-09-19 22:15:00,58.1,46.8,29.91,ENE,60,0.0,3.6,66,0.00,,---,0.00,VWS V14.01,2013-09-20 05:15:00,
2013-09-19 22:21:00,57.9,46.6,29.91,ENE,60,0.0,0.0,66,0.00,,---,0.00,VWS V14.01,2013-09-20 05:21:00,
2013-09-19 22:27:00,57.6,47.1,29.91,ENE,60,0.0,0.0,68,0.00,,---,0.00,VWS V14.01,2013-09-20 05:27:00,
2013-09-19 22:33:00,57.4,46.9,29.91,ENE,64,0.0,0.0,68,0.00,,---,0.00,VWS V14.01,2013-09-20 05:33:00,
2013-09-19 22:38:00,57.0,47.3,29.91,ENE,64,0.0,0.0,70,0.00,,---,0.00,VWS V14.01,2013-09-20 05:38:00,
2013-09-19 22:43:00,56.8,47.2,29.91,ENE,64,0.0,0.0,70,0.00,,---,0.00,VWS V14.01,2013-09-20 05:43:00,
2013-09-19 22:48:00,56.5,46.8,29.91,ENE,64,0.0,0.0,70,0.00,,---,0.00,VWS V14.01,2013-09-20 05:48:00,
2013-09-19 22:53:00,56.1,46.5,29.91,ENE,64,0.0,0.0,70,0.00,,---,0.00,VWS V14.01,2013-09-20 05:53:00,
2013-09-19 22:59:00,55.9,46.3,29.91,ENE,65,0.0,0.0,70,0.00,,---,0.00,VWS V14.01,2013-09-20 05:59:00,
2013-09-19 23:04:00,55.6,46.0,29.91,East,85,2.7,3.6,70,0.00,,---,0.00,VWS V14.01,2013-09-20 06:04:00,
2013-09-19 23:10:00,55.4,45.8,29.91,ENE,64,4.5,4.9,70,0.00,,---,0.00,VWS V14.01,2013-09-20 06:10:00,
2013-09-19 23:15:00,55.4,46.5,29.91,East,89,4.0,4.5,72,0.00,,---,0.00,VWS V14.01,2013-09-20 06:15:00,
2013-09-19 23:21:00,55.2,46.4,29.91,ENE,72,0.0,3.6,72,0.00,,---,0.00,VWS V14.01,2013-09-20 06:21:00,
2013-09-19 23:26:00,54.9,46.0,29.91,ENE,72,0.0,0.0,72,0.00,,---,0.00,VWS V14.01,2013-09-20 06:26:00,
2013-09-19 23:32:00,54.7,45.8,29.91,ENE,72,0.0,0.0,72,0.00,,---,0.00,VWS V14.01,2013-09-20 06:32:00,
2013-09-19 23:38:00,54.5,45.7,29.91,ENE,72,0.0,0.0,72,0.00,,---,0.00,VWS V14.01,2013-09-20 06:38:00,
2013-09-19 23:44:00,54.5,45.7,29.91,ENE,72,0.0,0.0,72,0.00,,---,0.00,VWS V14.01,2013-09-20 06:44:00,
2013-09-19 23:50:00,54.5,45.7,29.91,SSE,150,0.0,0.0,72,0.00,,---,0.00,VWS V14.01,2013-09-20 06:50:00,
2013-09-19 23:55:00,54.3,46.2,29.91,ENE,68,6.3,6.3,74,0.00,,---,0.00,VWS V14.01,2013-09-20 06:55:00,